Regional Weather Roundup
Issued by NWS

Home | Current Version | Previous Version | Graphics & Text | Print | Product List | Glossary On
Versions: 1 2 3 4 5 6 7 8 9 10 11 12 13 14 15 16 17 18 19 20 21 22 23 24 25 26 27 28 29 30 31 32 33 34 35 36 37 38 39 40 41 42 43 44 45 46 47 48 49 50
000
ASUS45 KABQ 210410
RWRNM
NEW MEXICO REGIONAL WEATHER ROUNDUP
NATIONAL WEATHER SERVICE ALBUQUERQUE NM
900 PM MST MON FEB 20 2017

NOTE: "FAIR" MEANS FEW OR NO CLOUDS BELOW 12,000 FEET AGL WITH NO
       SIGNIFICANT WEATHER OR OBSTRUCTIONS TO VISION.

      THIS PRODUCT IS RELEASED AS TWO VERSIONS.  ONE VERSION NEAR
      THE TOP OF THE HOUR CONTAINING PRELIMINARY DATA FROM ALBUQUERQUE
      AND OTHER STATIONS.  A FINAL VERSION WITH ADDITIONAL DATA IS
      ISSUED ABOUT 10 MINUTES AFTER THE HOUR.

NMZ501-503-504-510>518-210500-
NORTHWEST PLATEAU/NORTHCENTRAL MOUNTAINS

CITY           SKY/WX    TMP DP  RH WIND       PRES   REMARKS
FARMINGTON     FAIR      39  30  70 NE6       30.29R WCI  35
LOS ALAMOS     FAIR      42  22  45 SW8       30.30S
SANTA FE       FAIR      37  23  56 N6        30.26R WCI  32
TAOS             N/A     34  18  51 E5        30.29R WCI  30
ANGEL FIRE     FAIR      31  20  63 SE7       30.30R WCI  25

$$
NMZ402-403-502-505>509-210500-
WESTCENTRAL MOUNTAINS/SOUTHWEST MOUNTAINS

CITY           SKY/WX    TMP DP  RH WIND       PRES   REMARKS
GALLUP         FAIR      37  31  78 CALM      30.35R
GRANTS         FAIR      35  28  76 NW6       30.34R WCI  30
SILVER CITY    FAIR      45  35  68 NW9       30.32R

$$
NMZ407-409-411-412-210500-
SOUTHERN DESERTS

CITY           SKY/WX    TMP DP  RH WIND       PRES   REMARKS
DEMING         FAIR      51  36  56 W12       30.28R
LAS CRUCES     FAIR      50  33  52 W7        30.27R
HOLLOMAN AFB   FAIR      54  25  32 N3        30.27R
ALAMOGORDO     FAIR      50  23  34 NE9       30.24R
T OR C         FAIR      54  34  46 W7        30.25R

$$
NMZ519>523-210500-
CENTRAL VALLEYS/CENTRAL HIGHLANDS

CITY           SKY/WX    TMP DP  RH WIND       PRES   REMARKS
ALBUQUERQUE    FAIR      49  28  44 NW6       30.27R
DOUBLE EAGLE   CLEAR     45  28  53 NW12      30.28R
MORIARTY ARPT  FAIR      45  27  49 CALM      30.28R
CLINES CORNERS FAIR      38  26  62 W16       30.27R WCI  29
BELEN          FAIR      43  28  55 N5        30.27R
SOCORRO        FAIR      46  29  51 CALM      30.26R

$$
NMZ524>526-539-540-210500-
SOUTHCENTRAL MOUNTAINS

CITY           SKY/WX    TMP DP  RH WIND       PRES   REMARKS
RUIDOSO        FAIR      41  18  38 W6        30.30S

$$
NMZ527>531-210500-
NORTHEAST HIGHLANDS/NORTHEAST PLAINS

CITY           SKY/WX    TMP DP  RH WIND       PRES   REMARKS
LAS VEGAS      FAIR      41  14  33 N6        30.22R
RATON          NOT AVBL
CLAYTON        FAIR      39  15  37 W6        30.13R WCI  35

$$
NMZ532>537-210500-
EASTCENTRAL PLAINS

CITY           SKY/WX    TMP DP  RH WIND       PRES   REMARKS
TUCUMCARI      FAIR      46  16  30 CALM      30.11R
CANNON AFB     FAIR      42  22  43 W5        30.13R
CLOVIS AIRPORT FAIR      43  23  45 NE5       30.14R

$$
NMZ028-029-538-210500-
SOUTHEAST PLAINS

CITY           SKY/WX    TMP DP  RH WIND       PRES   REMARKS
ROSWELL        FAIR      56  24  29 W14         N/A
ARTESIA        FAIR      54  27  35 W10G20    30.16R
CARLSBAD       FAIR      56  29  35 W14       30.14R
HOBBS          FAIR      45  19  36 NW5       30.15R


$$




USA.gov is the U.S. government's official web portal to all federal, state and local government web resources and services.